Regional Weather Roundup
Issued by NWS Midland/Odessa, TX

Skip options and go directly to product.
Home | Oldest Version | Previous Version | Current Version | All | Text Only | Save Text | Print | Product List | Glossary On

Skip product version selection by date and time.   
144
ASUS44 KMAF 271810
RWRMAF
MIDLAND AREA WEATHER ROUNDUP
NATIONAL WEATHER SERVICE MIDLAND TX
1200 PM CST THU NOV 27 2014

...IN SOUTHWEST TEXAS AND SOUTHEAST NEW MEXICO...

CITY           SKY/WX    TMP DP  RH WIND       PRES   REMARKS
ALPINE         SUNNY     63  20  19 CALM      30.47F
ANDREWS        FAIR      54  32  44 S8        30.44F
ARTESIA        NOT AVBL
BIG SPRING     SUNNY     55  31  40 SE9       30.48F
CARLSBAD       SUNNY     53  32  44 SE7       30.42F
DRYDEN           N/A     59  31  34 SE8       30.43F
FORT STOCKTON  SUNNY     57  32  38 E5        30.43F
GUAD PASS      NOT AVBL
HOBBS          SUNNY     54  32  43 SE12      30.45F
MARFA          SUNNY     61  19  20 SE7       30.45F
MIDLAND AIRPK  SUNNY     56  34  44 SE12      30.46F
MIDLAND INTL   SUNNY     56  33  42 SE13      30.44F
ODESSA         SUNNY     55  31  39 S13       30.45F
PECOS          SUNNY     52  30  43 CALM      30.44F
PRESIDIO       FAIR      59  27  29 CALM      30.40F
SEMINOLE       SUNNY     53  32  45 SE10      30.45F
SNYDER         SUNNY     50  29  43 SE9       30.48F
WINK           SUNNY     55  31  39 S10       30.42F
$$
...OTHER STATIONS IN TEXAS...

CITY           SKY/WX    TMP DP  RH WIND       PRES   REMARKS
ABILENE        SUNNY     53  28  38 S9        30.49F
AMARILLO       SUNNY     50  28  42 S21G28    30.38F
AUSTIN         SUNNY     57  31  37 N7        30.51F
BROWNSVILLE    MOSUNNY   76  54  46 S8        30.41F
CORPUS CHRISTI SUNNY     67  51  56 NE7       30.44F
DALLAS FTW     MOSUNNY   51  23  33 VRB3      30.51F
DEL RIO        SUNNY     62  36  37 E7        30.45F
EL PASO        SUNNY     58  21  24 E3        30.41F
HOUSTON INT    SUNNY     62  31  31 VRB3      30.48F
LUBBOCK        SUNNY     49  27  42 S13G21    30.44F
SAN ANGELO     SUNNY     56  32  40 E9        30.48F
SAN ANTONIO    SUNNY     61  26  26 NE15      30.49F
WACO           SUNNY     55  26  32 VRB3      30.52F
WICHITA FALLS  NOT AVBL
$$
...OTHER LOCATIONS IN NEW MEXICO...

CITY           SKY/WX    TMP DP  RH WIND       PRES   REMARKS
ALAMAGORDO     MOSUNNY   57  21  24 SW3       30.42F
ALBUQUERQUE    MOSUNNY   47  23  38 W3        30.46F
CANNON AFB     SUNNY     55  28  35 SW14G24   30.38F
CLOVIS         SUNNY     55  30  38 SW22      30.39F
HOLLOMAN AFB   SUNNY     58  23  25 CALM      30.41F
ROSWELL        SUNNY     52  31  44 S13       30.43F
RUIDOSO        SUNNY     57  19  23 NE6       30.47F
SANTA FE       SUNNY     49  22  34 N14       30.44F
TRUTH OR CONSE SUNNY     57  21  24 N8        30.43F
TUCUMCARI      SUNNY     55  28  35 SW21      30.34F
$$

USA.gov is the U.S. government's official web portal to all federal, state and local government web resources and services.